Time,TemperatureF,DewpointF,PressureIn,WindDirection,WindDirectionDegrees,WindSpeedMPH,WindSpeedGustMPH,Humidity,HourlyPrecipIn,Conditions,Clouds,dailyrainin,SoftwareType,DateUTC
2013-04-22 00:01:00,55.0,43.8,30.29,ENE,68,5.0,14.0,66,0.00,,,0.00,Weather View 32 v70,2013-04-22 04:01:00,
2013-04-22 00:06:00,55.0,43.8,30.29,East,90,2.0,14.0,66,0.00,,,0.00,Weather View 32 v70,2013-04-22 04:06:00,
2013-04-22 00:11:00,55.0,43.8,30.29,East,90,3.0,14.0,66,0.00,,,0.00,Weather View 32 v70,2013-04-22 04:11:00,
2013-04-22 00:16:00,55.0,44.6,30.29,North,0,10.0,14.0,68,0.00,,,0.00,Weather View 32 v70,2013-04-22 04:16:00,
2013-04-22 00:21:00,55.0,44.6,30.29,East,90,4.0,14.0,68,0.00,,,0.00,Weather View 32 v70,2013-04-22 04:21:00,
2013-04-22 00:26:00,54.0,44.0,30.29,East,90,6.0,14.0,69,0.00,,,0.00,Weather View 32 v70,2013-04-22 04:26:00,
2013-04-22 00:31:00,54.0,44.0,30.29,ENE,68,3.0,14.0,69,0.00,,,0.00,Weather View 32 v70,2013-04-22 04:31:00,
2013-04-22 00:36:00,54.0,44.0,30.29,North,0,3.0,14.0,69,0.00,,,0.00,Weather View 32 v70,2013-04-22 04:36:00,
2013-04-22 00:41:00,54.0,44.4,30.29,ENE,68,4.0,14.0,70,0.00,,,0.00,Weather View 32 v70,2013-04-22 04:41:00,
2013-04-22 00:47:00,54.0,44.4,30.29,ENE,68,3.0,14.0,70,0.00,,,0.00,Weather View 32 v70,2013-04-22 04:47:00,
2013-04-22 00:52:00,53.0,43.8,30.30,ENE,68,9.0,14.0,71,0.00,,,0.00,Weather View 32 v70,2013-04-22 04:52:00,
2013-04-22 00:57:00,53.0,43.8,30.30,East,90,1.0,14.0,71,0.00,,,0.00,Weather View 32 v70,2013-04-22 04:57:00,
2013-04-22 01:02:00,53.0,43.8,30.30,ENE,68,5.0,14.0,71,0.00,,,0.00,Weather View 32 v70,2013-04-22 05:02:00,
2013-04-22 01:07:00,53.0,43.8,30.30,East,90,5.0,14.0,71,0.00,,,0.00,Weather View 32 v70,2013-04-22 05:07:00,
2013-04-22 01:12:00,53.0,44.2,30.30,ENE,68,3.0,14.0,72,0.00,,,0.00,Weather View 32 v70,2013-04-22 05:12:00,
2013-04-22 01:17:00,53.0,44.2,30.30,ENE,68,7.0,14.0,72,0.00,,,0.00,Weather View 32 v70,2013-04-22 05:17:00,
2013-04-22 01:22:00,53.0,44.2,30.30,SSE,158,6.0,14.0,72,0.00,,,0.00,Weather View 32 v70,2013-04-22 05:22:00,
2013-04-22 01:27:00,53.0,44.6,30.29,SSE,158,3.0,14.0,73,0.00,,,0.00,Weather View 32 v70,2013-04-22 05:27:00,
2013-04-22 01:32:00,52.0,43.6,30.29,North,0,4.0,14.0,73,0.00,,,0.00,Weather View 32 v70,2013-04-22 05:32:00,
2013-04-22 01:37:00,52.0,43.6,30.29,ENE,68,9.0,14.0,73,0.00,,,0.00,Weather View 32 v70,2013-04-22 05:37:00,
2013-04-22 01:42:00,52.0,44.0,30.29,ENE,68,6.0,13.0,74,0.00,,,0.00,Weather View 32 v70,2013-04-22 05:42:00,
2013-04-22 01:47:00,52.0,44.0,30.29,ENE,68,5.0,13.0,74,0.00,,,0.00,Weather View 32 v70,2013-04-22 05:47:00,
2013-04-22 01:52:00,52.0,44.0,30.29,East,90,4.0,13.0,74,0.00,,,0.00,Weather View 32 v70,2013-04-22 05:52:00,
2013-04-22 01:57:00,52.0,44.3,30.29,North,0,3.0,13.0,75,0.00,,,0.00,Weather View 32 v70,2013-04-22 05:57:00,
2013-04-22 02:02:00,51.0,43.7,30.29,ENE,68,6.0,13.0,76,0.00,,,0.00,Weather View 32 v70,2013-04-22 06:02:00,
2013-04-22 02:07:00,51.0,43.7,30.28,ENE,68,5.0,12.0,76,0.00,,,0.00,Weather View 32 v70,2013-04-22 06:07:00,
2013-04-22 02:12:00,51.0,43.7,30.28,ENE,68,7.0,12.0,76,0.00,,,0.00,Weather View 32 v70,2013-04-22 06:12:00,
2013-04-22 02:17:00,51.0,43.7,30.28,East,90,4.0,12.0,76,0.00,,,0.00,Weather View 32 v70,2013-04-22 06:17:00,
2013-04-22 02:22:00,51.0,43.7,30.28,East,90,5.0,13.0,76,0.00,,,0.00,Weather View 32 v70,2013-04-22 06:22:00,
2013-04-22 02:27:00,51.0,43.7,30.28,East,90,3.0,13.0,76,0.00,,,0.00,Weather View 32 v70,2013-04-22 06:27:00,
2013-04-22 02:32:00,51.0,44.0,30.28,ENE,68,3.0,14.0,77,0.00,,,0.00,Weather View 32 v70,2013-04-22 06:32:00,
2013-04-22 02:37:00,51.0,44.0,30.28,North,0,3.0,14.0,77,0.00,,,0.00,Weather View 32 v70,2013-04-22 06:37:00,
2013-04-22 02:42:00,51.0,44.0,30.27,East,90,5.0,14.0,77,0.00,,,0.00,Weather View 32 v70,2013-04-22 06:42:00,
2013-04-22 02:47:00,50.0,43.4,30.27,East,90,6.0,14.0,78,0.00,,,0.00,Weather View 32 v70,2013-04-22 06:47:00,
2013-04-22 02:52:00,50.0,43.4,30.27,ENE,68,3.0,14.0,78,0.00,,,0.00,Weather View 32 v70,2013-04-22 06:52:00,
2013-04-22 02:57:00,50.0,43.4,30.27,East,90,8.0,14.0,78,0.00,,,0.00,Weather View 32 v70,2013-04-22 06:57:00,
2013-04-22 03:02:00,50.0,43.7,30.27,ENE,68,4.0,14.0,79,0.00,,,0.00,Weather View 32 v70,2013-04-22 07:02:00,
2013-04-22 03:07:00,50.0,43.7,30.27,East,90,5.0,14.0,79,0.00,,,0.00,Weather View 32 v70,2013-04-22 07:07:00,
2013-04-22 03:12:00,50.0,44.1,30.27,ENE,68,5.0,14.0,80,0.00,,,0.00,Weather View 32 v70,2013-04-22 07:12:00,
2013-04-22 03:17:00,50.0,44.1,30.26,East,90,3.0,14.0,80,0.00,,,0.00,Weather View 32 v70,2013-04-22 07:17:00,
2013-04-22 03:22:00,50.0,44.1,30.26,ENE,68,2.0,14.0,80,0.00,,,0.00,Weather View 32 v70,2013-04-22 07:22:00,
2013-04-22 03:27:00,49.0,43.1,30.27,East,90,4.0,14.0,80,0.00,,,0.00,Weather View 32 v70,2013-04-22 07:27:00,
2013-04-22 03:32:00,49.0,43.1,30.27,East,90,5.0,14.0,80,0.00,,,0.00,Weather View 32 v70,2013-04-22 07:32:00,
2013-04-22 03:38:00,49.0,43.4,30.27,East,90,7.0,14.0,81,0.00,,,0.00,Weather View 32 v70,2013-04-22 07:38:00,
2013-04-22 03:43:00,49.0,43.4,30.27,ENE,68,2.0,14.0,81,0.00,,,0.00,Weather View 32 v70,2013-04-22 07:43:00,
2013-04-22 03:48:00,49.0,43.4,30.27,East,90,8.0,14.0,81,0.00,,,0.00,Weather View 32 v70,2013-04-22 07:48:00,
2013-04-22 03:53:00,49.0,43.7,30.27,ENE,68,3.0,14.0,82,0.00,,,0.00,Weather View 32 v70,2013-04-22 07:53:00,
2013-04-22 03:58:00,49.0,43.7,30.27,ENE,68,3.0,14.0,82,0.00,,,0.00,Weather View 32 v70,2013-04-22 07:58:00,
2013-04-22 04:03:00,49.0,43.7,30.27,East,90,6.0,14.0,82,0.00,,,0.00,Weather View 32 v70,2013-04-22 08:03:00,
2013-04-22 04:08:00,48.0,42.8,30.26,ENE,68,5.0,14.0,82,0.00,,,0.00,Weather View 32 v70,2013-04-22 08:08:00,
2013-04-22 04:13:00,48.0,42.8,30.26,North,0,5.0,14.0,82,0.00,,,0.00,Weather View 32 v70,2013-04-22 08:13:00,
2013-04-22 04:18:00,48.0,42.8,30.26,ENE,68,3.0,13.0,82,0.00,,,0.00,Weather View 32 v70,2013-04-22 08:18:00,
2013-04-22 04:23:00,48.0,43.1,30.26,North,0,4.0,14.0,83,0.00,,,0.00,Weather View 32 v70,2013-04-22 08:23:00,
2013-04-22 04:28:00,48.0,43.1,30.26,North,0,5.0,14.0,83,0.00,,,0.00,Weather View 32 v70,2013-04-22 08:28:00,
2013-04-22 04:33:00,48.0,43.1,30.27,ENE,68,6.0,14.0,83,0.00,,,0.00,Weather View 32 v70,2013-04-22 08:33:00,
2013-04-22 04:38:00,48.0,43.1,30.26,SSE,158,6.0,14.0,83,0.00,,,0.00,Weather View 32 v70,2013-04-22 08:38:00,
2013-04-22 04:43:00,48.0,43.1,30.27,ENE,68,5.0,14.0,83,0.00,,,0.00,Weather View 32 v70,2013-04-22 08:43:00,
2013-04-22 04:48:00,48.0,43.4,30.27,ENE,68,3.0,14.0,84,0.00,,,0.00,Weather View 32 v70,2013-04-22 08:48:00,
2013-04-22 04:53:00,47.0,42.4,30.27,ENE,68,4.0,14.0,84,0.00,,,0.00,Weather View 32 v70,2013-04-22 08:53:00,
2013-04-22 04:58:00,47.0,42.7,30.27,North,0,1.0,14.0,85,0.00,,,0.00,Weather View 32 v70,2013-04-22 08:58:00,
2013-04-22 05:03:00,47.0,42.7,30.27,ENE,68,3.0,14.0,85,0.00,,,0.00,Weather View 32 v70,2013-04-22 09:03:00,
2013-04-22 05:08:00,47.0,42.7,30.27,North,0,4.0,14.0,85,0.00,,,0.00,Weather View 32 v70,2013-04-22 09:08:00,
2013-04-22 05:13:00,47.0,42.4,30.27,East,90,2.0,14.0,84,0.00,,,0.00,Weather View 32 v70,2013-04-22 09:13:00,
2013-04-22 05:18:00,47.0,42.4,30.27,ENE,68,2.0,14.0,84,0.00,,,0.00,Weather View 32 v70,2013-04-22 09:18:00,
2013-04-22 05:23:00,47.0,42.4,30.27,East,90,2.0,14.0,84,0.00,,,0.00,Weather View 32 v70,2013-04-22 09:23:00,
2013-04-22 05:28:00,47.0,42.4,30.27,ENE,68,4.0,14.0,84,0.00,,,0.00,Weather View 32 v70,2013-04-22 09:28:00,
2013-04-22 05:33:00,47.0,42.4,30.28,ENE,68,5.0,14.0,84,0.00,,,0.00,Weather View 32 v70,2013-04-22 09:33:00,
2013-04-22 05:38:00,47.0,42.1,30.28,ENE,68,6.0,14.0,83,0.00,,,0.00,Weather View 32 v70,2013-04-22 09:38:00,
2013-04-22 05:43:00,46.0,41.1,30.28,ENE,68,6.0,16.0,83,0.00,,,0.00,Weather View 32 v70,2013-04-22 09:43:00,
2013-04-22 05:48:00,46.0,41.1,30.29,ENE,68,3.0,16.0,83,0.00,,,0.00,Weather View 32 v70,2013-04-22 09:48:00,
2013-04-22 05:53:00,46.0,41.1,30.28,ENE,68,5.0,16.0,83,0.00,,,0.00,Weather View 32 v70,2013-04-22 09:53:00,
2013-04-22 05:58:00,46.0,41.1,30.29,North,0,3.0,16.0,83,0.00,,,0.00,Weather View 32 v70,2013-04-22 09:58:00,
2013-04-22 06:03:00,46.0,41.1,30.29,East,90,1.0,16.0,83,0.00,,,0.00,Weather View 32 v70,2013-04-22 10:03:00,
2013-04-22 06:08:00,46.0,41.1,30.29,East,90,3.0,16.0,83,0.00,,,0.00,Weather View 32 v70,2013-04-22 10:08:00,
2013-04-22 06:13:00,46.0,41.4,30.29,ENE,68,3.0,16.0,84,0.00,,,0.00,Weather View 32 v70,2013-04-22 10:13:00,
2013-04-22 06:18:00,46.0,41.4,30.29,ENE,68,8.0,16.0,84,0.00,,,0.00,Weather View 32 v70,2013-04-22 10:18:00,
2013-04-22 06:23:00,46.0,41.4,30.29,East,90,6.0,16.0,84,0.00,,,0.00,Weather View 32 v70,2013-04-22 10:23:00,
2013-04-22 06:29:00,45.0,40.1,30.29,ENE,68,3.0,16.0,83,0.00,,,0.00,Weather View 32 v70,2013-04-22 10:29:00,
2013-04-22 06:34:00,45.0,40.1,30.29,ENE,68,10.0,16.0,83,0.00,,,0.00,Weather View 32 v70,2013-04-22 10:34:00,
2013-04-22 06:39:00,45.0,40.1,30.29,East,90,4.0,16.0,83,0.00,,,0.00,Weather View 32 v70,2013-04-22 10:39:00,
2013-04-22 06:44:00,45.0,40.1,30.29,North,0,6.0,12.0,83,0.00,,,0.00,Weather View 32 v70,2013-04-22 10:44:00,
2013-04-22 06:49:00,45.0,39.8,30.30,ENE,68,5.0,11.0,82,0.00,,,0.00,Weather View 32 v70,2013-04-22 10:49:00,
2013-04-22 06:54:00,45.0,39.8,30.30,North,0,3.0,11.0,82,0.00,,,0.00,Weather View 32 v70,2013-04-22 10:54:00,
2013-04-22 06:59:00,45.0,39.5,30.30,ENE,68,6.0,11.0,81,0.00,,,0.00,Weather View 32 v70,2013-04-22 10:59:00,
2013-04-22 07:04:00,45.0,39.5,30.31,ENE,68,3.0,11.0,81,0.00,,,0.00,Weather View 32 v70,2013-04-22 11:04:00,
2013-04-22 07:09:00,45.0,39.5,30.31,ENE,68,2.0,11.0,81,0.00,,,0.00,Weather View 32 v70,2013-04-22 11:09:00,
2013-04-22 07:14:00,45.0,39.5,30.31,ENE,68,5.0,11.0,81,0.00,,,0.00,Weather View 32 v70,2013-04-22 11:14:00,
2013-04-22 07:19:00,45.0,39.5,30.31,ENE,68,4.0,11.0,81,0.00,,,0.00,Weather View 32 v70,2013-04-22 11:19:00,
2013-04-22 07:24:00,45.0,39.5,30.31,ENE,68,6.0,14.0,81,0.00,,,0.00,Weather View 32 v70,2013-04-22 11:24:00,
2013-04-22 07:29:00,45.0,39.2,30.31,ENE,68,2.0,14.0,80,0.00,,,0.00,Weather View 32 v70,2013-04-22 11:29:00,
2013-04-22 07:34:00,45.0,39.2,30.31,ENE,68,11.0,14.0,80,0.00,,,0.00,Weather View 32 v70,2013-04-22 11:34:00,
2013-04-22 07:39:00,45.0,38.5,30.31,North,0,5.0,14.0,78,0.00,,,0.00,Weather View 32 v70,2013-04-22 11:39:00,
2013-04-22 07:44:00,45.0,38.2,30.31,North,0,4.0,14.0,77,0.00,,,0.00,Weather View 32 v70,2013-04-22 11:44:00,
2013-04-22 07:49:00,45.0,38.2,30.31,NNW,338,3.0,14.0,77,0.00,,,0.00,Weather View 32 v70,2013-04-22 11:49:00,
2013-04-22 07:54:00,45.0,37.9,30.32,North,0,5.0,14.0,76,0.00,,,0.00,Weather View 32 v70,2013-04-22 11:54:00,
2013-04-22 07:59:00,45.0,37.5,30.32,North,0,3.0,14.0,75,0.00,,,0.00,Weather View 32 v70,2013-04-22 11:59:00,
2013-04-22 08:04:00,45.0,37.2,30.31,ENE,68,8.0,14.0,74,0.00,,,0.00,Weather View 32 v70,2013-04-22 12:04:00,
2013-04-22 08:09:00,45.0,36.9,30.32,ENE,68,4.0,15.0,73,0.00,,,0.00,Weather View 32 v70,2013-04-22 12:09:00,
2013-04-22 08:14:00,45.0,36.9,30.32,North,0,5.0,15.0,73,0.00,,,0.00,Weather View 32 v70,2013-04-22 12:14:00,
2013-04-22 08:19:00,46.0,37.5,30.32,ENE,68,5.0,15.0,72,0.00,,,0.00,Weather View 32 v70,2013-04-22 12:19:00,
2013-04-22 08:24:00,46.0,37.1,30.32,North,0,2.0,15.0,71,0.00,,,0.00,Weather View 32 v70,2013-04-22 12:24:00,
2013-04-22 08:29:00,46.0,36.4,30.32,North,0,4.0,15.0,69,0.00,,,0.00,Weather View 32 v70,2013-04-22 12:29:00,
2013-04-22 08:34:00,46.0,36.0,30.32,ENE,68,6.0,15.0,68,0.00,,,0.00,Weather View 32 v70,2013-04-22 12:34:00,
2013-04-22 08:39:00,46.0,35.3,30.32,ENE,68,4.0,17.0,66,0.00,,,0.00,Weather View 32 v70,2013-04-22 12:39:00,
2013-04-22 08:44:00,47.0,35.4,30.32,North,0,6.0,18.0,64,0.00,,,0.00,Weather View 32 v70,2013-04-22 12:44:00,
2013-04-22 08:49:00,47.0,35.0,30.32,ENE,68,7.0,18.0,63,0.00,,,0.00,Weather View 32 v70,2013-04-22 12:49:00,
2013-04-22 08:54:00,47.0,34.6,30.32,SSE,158,1.0,18.0,62,0.00,,,0.00,Weather View 32 v70,2013-04-22 12:54:00,
2013-04-22 08:59:00,48.0,35.2,30.32,ENE,68,5.0,18.0,61,0.00,,,0.00,Weather View 32 v70,2013-04-22 12:59:00,
2013-04-22 09:04:00,48.0,34.8,30.32,North,0,7.0,18.0,60,0.00,,,0.00,Weather View 32 v70,2013-04-22 13:04:00,
2013-04-22 09:09:00,48.0,34.3,30.31,North,0,3.0,18.0,59,0.00,,,0.00,Weather View 32 v70,2013-04-22 13:09:00,
2013-04-22 09:14:00,49.0,35.3,30.31,ENE,68,3.0,18.0,59,0.00,,,0.00,Weather View 32 v70,2013-04-22 13:14:00,
2013-04-22 09:19:00,49.0,34.4,30.31,North,0,6.0,18.0,57,0.00,,,0.00,Weather View 32 v70,2013-04-22 13:19:00,
2013-04-22 09:25:00,49.0,34.4,30.31,ENE,68,6.0,18.0,57,0.00,,,0.00,Weather View 32 v70,2013-04-22 13:25:00,
2013-04-22 09:30:00,50.0,34.9,30.31,ENE,68,4.0,18.0,56,0.00,,,0.00,Weather View 32 v70,2013-04-22 13:30:00,
2013-04-22 09:35:00,50.0,34.4,30.31,East,90,6.0,19.0,55,0.00,,,0.00,Weather View 32 v70,2013-04-22 13:35:00,
2013-04-22 09:40:00,50.0,34.0,30.31,ENE,68,6.0,19.0,54,0.00,,,0.00,Weather View 32 v70,2013-04-22 13:40:00,
2013-04-22 09:45:00,51.0,34.9,30.31,North,0,3.0,19.0,54,0.00,,,0.00,Weather View 32 v70,2013-04-22 13:45:00,
2013-04-22 09:50:00,51.0,35.4,30.31,North,0,2.0,19.0,55,0.00,,,0.00,Weather View 32 v70,2013-04-22 13:50:00,
2013-04-22 09:55:00,52.0,34.9,30.31,ENE,68,7.0,19.0,52,0.00,,,0.00,Weather View 32 v70,2013-04-22 13:55:00,
2013-04-22 10:00:00,52.0,35.4,30.31,ENE,68,4.0,19.0,53,0.00,,,0.00,Weather View 32 v70,2013-04-22 14:00:00,
2013-04-22 10:05:00,52.0,34.4,30.31,ENE,68,10.0,19.0,51,0.00,,,0.00,Weather View 32 v70,2013-04-22 14:05:00,
2013-04-22 10:10:00,53.0,35.3,30.31,North,0,3.0,19.0,51,0.00,,,0.00,Weather View 32 v70,2013-04-22 14:10:00,
2013-04-22 10:15:00,53.0,34.8,30.31,North,0,3.0,19.0,50,0.00,,,0.00,Weather View 32 v70,2013-04-22 14:15:00,
2013-04-22 10:20:00,53.0,34.8,30.31,ENE,68,6.0,19.0,50,0.00,,,0.00,Weather View 32 v70,2013-04-22 14:20:00,
2013-04-22 10:25:00,54.0,34.7,30.31,ENE,68,8.0,19.0,48,0.00,,,0.00,Weather View 32 v70,2013-04-22 14:25:00,
2013-04-22 10:30:00,55.0,35.1,30.30,ENE,68,2.0,19.0,47,0.00,,,0.00,Weather View 32 v70,2013-04-22 14:30:00,
2013-04-22 10:35:00,54.0,33.1,30.30,North,0,5.0,21.0,45,0.00,,,0.00,Weather View 32 v70,2013-04-22 14:35:00,
2013-04-22 10:40:00,55.0,34.0,30.30,ENE,68,11.0,21.0,45,0.00,,,0.00,Weather View 32 v70,2013-04-22 14:40:00,
2013-04-22 10:45:00,56.0,35.5,30.30,ENE,68,5.0,21.0,46,0.00,,,0.00,Weather View 32 v70,2013-04-22 14:45:00,
2013-04-22 10:50:00,57.0,35.3,30.30,North,0,6.0,21.0,44,0.00,,,0.00,Weather View 32 v70,2013-04-22 14:50:00,
2013-04-22 10:55:00,57.0,34.7,30.30,North,0,9.0,21.0,43,0.00,,,0.00,Weather View 32 v70,2013-04-22 14:55:00,
2013-04-22 11:00:00,57.0,34.7,30.30,ENE,68,6.0,21.0,43,0.00,,,0.00,Weather View 32 v70,2013-04-22 15:00:00,
2013-04-22 11:05:00,58.0,35.6,30.30,ENE,68,11.0,21.0,43,0.00,,,0.00,Weather View 32 v70,2013-04-22 15:05:00,
2013-04-22 11:10:00,58.0,35.6,30.30,NNW,338,3.0,21.0,43,0.00,,,0.00,Weather View 32 v70,2013-04-22 15:10:00,
2013-04-22 11:15:00,59.0,35.3,30.29,East,90,6.0,21.0,41,0.00,,,0.00,Weather View 32 v70,2013-04-22 15:15:00,
2013-04-22 11:20:00,59.0,34.0,30.29,North,0,6.0,21.0,39,0.00,,,0.00,Weather View 32 v70,2013-04-22 15:20:00,
2013-04-22 11:25:00,59.0,34.0,30.29,ENE,68,6.0,21.0,39,0.00,,,0.00,Weather View 32 v70,2013-04-22 15:25:00,
2013-04-22 11:30:00,58.0,33.1,30.28,North,0,3.0,21.0,39,0.00,,,0.00,Weather View 32 v70,2013-04-22 15:30:00,
2013-04-22 11:35:00,59.0,34.0,30.28,ENE,68,11.0,17.0,39,0.00,,,0.00,Weather View 32 v70,2013-04-22 15:35:00,
2013-04-22 11:40:00,60.0,34.9,30.28,North,0,6.0,16.0,39,0.00,,,0.00,Weather View 32 v70,2013-04-22 15:40:00,
2013-04-22 11:45:00,60.0,33.6,30.28,ENE,68,5.0,16.0,37,0.00,,,0.00,Weather View 32 v70,2013-04-22 15:45:00,
2013-04-22 11:50:00,61.0,34.5,30.27,North,0,5.0,16.0,37,0.00,,,0.00,Weather View 32 v70,2013-04-22 15:50:00,
2013-04-22 11:55:00,61.0,34.5,30.27,North,0,4.0,16.0,37,0.00,,,0.00,Weather View 32 v70,2013-04-22 15:55:00,
2013-04-22 12:00:00,61.0,33.8,30.26,ENE,68,5.0,16.0,36,0.00,,,0.00,Weather View 32 v70,2013-04-22 16:00:00,
2013-04-22 12:05:00,61.0,33.1,30.26,North,0,6.0,16.0,35,0.00,,,0.00,Weather View 32 v70,2013-04-22 16:05:00,
2013-04-22 12:10:00,61.0,33.8,30.26,West,270,6.0,16.0,36,0.00,,,0.00,Weather View 32 v70,2013-04-22 16:10:00,
2013-04-22 12:15:00,62.0,34.7,30.25,NNW,338,5.0,16.0,36,0.00,,,0.00,Weather View 32 v70,2013-04-22 16:15:00,
2013-04-22 12:20:00,62.0,33.2,30.25,ENE,68,7.0,16.0,34,0.00,,,0.00,Weather View 32 v70,2013-04-22 16:20:00,
2013-04-22 12:25:00,62.0,33.2,30.25,ENE,68,7.0,16.0,34,0.00,,,0.00,Weather View 32 v70,2013-04-22 16:25:00,
2013-04-22 12:30:00,64.0,37.1,30.24,North,0,1.0,16.0,37,0.00,,,0.00,Weather View 32 v70,2013-04-22 16:30:00,
2013-04-22 12:35:00,64.0,35.0,30.24,ENE,68,6.0,15.0,34,0.00,,,0.00,Weather View 32 v70,2013-04-22 16:35:00,
2013-04-22 12:40:00,64.0,35.0,30.24,NNW,338,5.0,15.0,34,0.00,,,0.00,Weather View 32 v70,2013-04-22 16:40:00,
2013-04-22 12:45:00,64.0,33.5,30.24,ENE,68,5.0,15.0,32,0.00,,,0.00,Weather View 32 v70,2013-04-22 16:45:00,
2013-04-22 12:50:00,64.0,36.4,30.23,SSE,158,3.0,15.0,36,0.00,,,0.00,Weather View 32 v70,2013-04-22 16:50:00,
2013-04-22 12:55:00,64.0,33.5,30.23,ENE,68,5.0,15.0,32,0.00,,,0.00,Weather View 32 v70,2013-04-22 16:55:00,
2013-04-22 13:00:00,64.0,32.7,30.23,North,0,3.0,15.0,31,0.00,,,0.00,Weather View 32 v70,2013-04-22 17:00:00,
2013-04-22 13:05:00,63.0,32.6,30.23,ENE,68,5.0,15.0,32,0.00,,,0.00,Weather View 32 v70,2013-04-22 17:05:00,
2013-04-22 13:10:00,63.0,32.6,30.23,North,0,5.0,15.0,32,0.00,,,0.00,Weather View 32 v70,2013-04-22 17:10:00,
2013-04-22 13:15:00,64.0,32.7,30.23,North,0,3.0,15.0,31,0.00,,,0.00,Weather View 32 v70,2013-04-22 17:15:00,
2013-04-22 13:20:00,64.0,31.0,30.22,ENE,68,5.0,15.0,29,0.00,,,0.00,Weather View 32 v70,2013-04-22 17:20:00,
2013-04-22 13:25:00,64.0,32.7,30.22,ENE,68,3.0,14.0,31,0.00,,,0.00,Weather View 32 v70,2013-04-22 17:25:00,
2013-04-22 13:30:00,64.0,31.9,30.22,North,0,5.0,14.0,30,0.00,,,0.00,Weather View 32 v70,2013-04-22 17:30:00,
2013-04-22 13:35:00,64.0,31.9,30.22,North,0,6.0,14.0,30,0.00,,,0.00,Weather View 32 v70,2013-04-22 17:35:00,
2013-04-22 13:40:00,64.0,31.9,30.22,NNW,338,5.0,14.0,30,0.00,,,0.00,Weather View 32 v70,2013-04-22 17:40:00,
2013-04-22 13:45:00,64.0,33.5,30.21,North,0,5.0,14.0,32,0.00,,,0.00,Weather View 32 v70,2013-04-22 17:45:00,
2013-04-22 13:50:00,63.0,32.6,30.21,ENE,68,4.0,14.0,32,0.00,,,0.00,Weather View 32 v70,2013-04-22 17:50:00,
2013-04-22 13:55:00,63.0,31.8,30.21,North,0,6.0,14.0,31,0.00,,,0.00,Weather View 32 v70,2013-04-22 17:55:00,
2013-04-22 14:00:00,63.0,33.4,30.21,ENE,68,5.0,16.0,33,0.00,,,0.00,Weather View 32 v70,2013-04-22 18:00:00,
2013-04-22 14:05:00,63.0,32.6,30.21,ENE,68,3.0,16.0,32,0.00,,,0.00,Weather View 32 v70,2013-04-22 18:05:00,
2013-04-22 14:10:00,63.0,34.1,30.21,ENE,68,4.0,16.0,34,0.00,,,0.00,Weather View 32 v70,2013-04-22 18:10:00,
2013-04-22 14:15:00,64.0,33.5,30.21,ENE,68,5.0,16.0,32,0.00,,,0.00,Weather View 32 v70,2013-04-22 18:15:00,
2013-04-22 14:20:00,65.0,35.9,30.20,East,90,5.0,16.0,34,0.00,,,0.00,Weather View 32 v70,2013-04-22 18:20:00,
2013-04-22 14:25:00,65.0,34.4,30.20,ENE,68,5.0,16.0,32,0.00,,,0.00,Weather View 32 v70,2013-04-22 18:25:00,
2013-04-22 14:30:00,64.0,32.7,30.20,East,90,1.0,16.0,31,0.00,,,0.00,Weather View 32 v70,2013-04-22 18:30:00,
2013-04-22 14:35:00,65.0,35.1,30.20,North,0,5.0,16.0,33,0.00,,,0.00,Weather View 32 v70,2013-04-22 18:35:00,
2013-04-22 14:40:00,64.0,32.7,30.20,ENE,68,5.0,16.0,31,0.00,,,0.00,Weather View 32 v70,2013-04-22 18:40:00,
2013-04-22 14:45:00,64.0,32.7,30.20,North,0,5.0,16.0,31,0.00,,,0.00,Weather View 32 v70,2013-04-22 18:45:00,
2013-04-22 14:50:00,65.0,33.6,30.20,ENE,68,4.0,16.0,31,0.00,,,0.00,Weather View 32 v70,2013-04-22 18:50:00,
2013-04-22 14:55:00,64.0,31.9,30.19,North,0,6.0,16.0,30,0.00,,,0.00,Weather View 32 v70,2013-04-22 18:55:00,
2013-04-22 15:00:00,65.0,32.7,30.19,SSE,158,4.0,14.0,30,0.00,,,0.00,Weather View 32 v70,2013-04-22 19:00:00,
2013-04-22 15:05:00,65.0,34.4,30.19,ENE,68,3.0,14.0,32,0.00,,,0.00,Weather View 32 v70,2013-04-22 19:05:00,
2013-04-22 15:10:00,65.0,34.4,30.18,ENE,68,3.0,14.0,32,0.00,,,0.00,Weather View 32 v70,2013-04-22 19:10:00,
2013-04-22 15:15:00,65.0,31.9,30.19,East,90,10.0,14.0,29,0.00,,,0.00,Weather View 32 v70,2013-04-22 19:15:00,
2013-04-22 15:20:00,65.0,32.7,30.19,ENE,68,5.0,14.0,30,0.00,,,0.00,Weather View 32 v70,2013-04-22 19:20:00,
2013-04-22 15:25:00,65.0,34.4,30.18,ENE,68,3.0,14.0,32,0.00,,,0.00,Weather View 32 v70,2013-04-22 19:25:00,
2013-04-22 15:30:00,66.0,33.6,30.18,ENE,68,6.0,14.0,30,0.00,,,0.00,Weather View 32 v70,2013-04-22 19:30:00,
2013-04-22 15:35:00,66.0,35.2,30.18,SSE,158,1.0,14.0,32,0.00,,,0.00,Weather View 32 v70,2013-04-22 19:35:00,
2013-04-22 15:40:00,65.0,31.9,30.17,East,90,6.0,14.0,29,0.00,,,0.00,Weather View 32 v70,2013-04-22 19:40:00,
2013-04-22 15:45:00,66.0,33.6,30.17,SSE,158,1.0,14.0,30,0.00,,,0.00,Weather View 32 v70,2013-04-22 19:45:00,
2013-04-22 15:50:00,66.0,32.8,30.16,ENE,68,3.0,14.0,29,0.00,,,0.00,Weather View 32 v70,2013-04-22 19:50:00,
2013-04-22 15:55:00,65.0,31.9,30.16,North,0,5.0,14.0,29,0.00,,,0.00,Weather View 32 v70,2013-04-22 19:55:00,
2013-04-22 16:00:00,66.0,31.9,30.16,ENE,68,4.0,14.0,28,0.00,,,0.00,Weather View 32 v70,2013-04-22 20:00:00,
2013-04-22 16:05:00,66.0,32.8,30.16,East,90,5.0,14.0,29,0.00,,,0.00,Weather View 32 v70,2013-04-22 20:05:00,
2013-04-22 16:10:00,66.0,31.0,30.16,North,0,2.0,14.0,27,0.00,,,0.00,Weather View 32 v70,2013-04-22 20:10:00,
2013-04-22 16:15:00,66.0,32.8,30.15,ENE,68,3.0,14.0,29,0.00,,,0.00,Weather View 32 v70,2013-04-22 20:15:00,
2013-04-22 16:20:00,66.0,32.8,30.15,East,90,1.0,13.0,29,0.00,,,0.00,Weather View 32 v70,2013-04-22 20:20:00,
2013-04-22 16:25:00,66.0,31.9,30.15,ENE,68,4.0,13.0,28,0.00,,,0.00,Weather View 32 v70,2013-04-22 20:25:00,
2013-04-22 16:30:00,66.0,31.9,30.15,East,90,3.0,13.0,28,0.00,,,0.00,Weather View 32 v70,2013-04-22 20:30:00,
2013-04-22 16:35:00,66.0,32.8,30.15,ENE,68,10.0,13.0,29,0.00,,,0.00,Weather View 32 v70,2013-04-22 20:35:00,
2013-04-22 16:40:00,66.0,31.9,30.14,ENE,68,5.0,13.0,28,0.00,,,0.00,Weather View 32 v70,2013-04-22 20:40:00,
2013-04-22 16:45:00,66.0,32.8,30.14,ENE,68,6.0,13.0,29,0.00,,,0.00,Weather View 32 v70,2013-04-22 20:45:00,
2013-04-22 16:50:00,66.0,31.9,30.14,East,90,2.0,13.0,28,0.00,,,0.00,Weather View 32 v70,2013-04-22 20:50:00,
2013-04-22 16:55:00,66.0,31.9,30.13,ENE,68,2.0,13.0,28,0.00,,,0.00,Weather View 32 v70,2013-04-22 20:55:00,
2013-04-22 17:00:00,66.0,32.8,30.13,ENE,68,4.0,13.0,29,0.00,,,0.00,Weather View 32 v70,2013-04-22 21:00:00,
2013-04-22 17:05:00,66.0,32.8,30.13,North,0,3.0,13.0,29,0.00,,,0.00,Weather View 32 v70,2013-04-22 21:05:00,
2013-04-22 17:10:00,66.0,31.9,30.13,North,0,5.0,13.0,28,0.00,,,0.00,Weather View 32 v70,2013-04-22 21:10:00,
2013-04-22 17:15:00,66.0,31.9,30.13,North,0,3.0,13.0,28,0.00,,,0.00,Weather View 32 v70,2013-04-22 21:15:00,
2013-04-22 17:20:00,66.0,32.8,30.13,ENE,68,3.0,13.0,29,0.00,,,0.00,Weather View 32 v70,2013-04-22 21:20:00,
2013-04-22 17:25:00,66.0,31.0,30.12,North,0,3.0,13.0,27,0.00,,,0.00,Weather View 32 v70,2013-04-22 21:25:00,
2013-04-22 17:30:00,65.0,30.1,30.12,NNW,338,4.0,13.0,27,0.00,,,0.00,Weather View 32 v70,2013-04-22 21:30:00,
2013-04-22 17:35:00,65.0,31.0,30.12,ENE,68,2.0,13.0,28,0.00,,,0.00,Weather View 32 v70,2013-04-22 21:35:00,
2013-04-22 17:40:00,65.0,31.9,30.12,East,90,5.0,13.0,29,0.00,,,0.00,Weather View 32 v70,2013-04-22 21:40:00,
2013-04-22 17:45:00,65.0,30.1,30.12,North,0,5.0,13.0,27,0.00,,,0.00,Weather View 32 v70,2013-04-22 21:45:00,
2013-04-22 17:50:00,65.0,31.0,30.12,ENE,68,3.0,13.0,28,0.00,,,0.00,Weather View 32 v70,2013-04-22 21:50:00,
2013-04-22 17:55:00,65.0,31.0,30.12,North,0,3.0,13.0,28,0.00,,,0.00,Weather View 32 v70,2013-04-22 21:55:00,
2013-04-22 18:00:00,65.0,31.0,30.12,North,0,3.0,13.0,28,0.00,,,0.00,Weather View 32 v70,2013-04-22 22:00:00,
2013-04-22 18:05:00,65.0,31.9,30.12,East,90,6.0,13.0,29,0.00,,,0.00,Weather View 32 v70,2013-04-22 22:05:00,
2013-04-22 18:10:00,65.0,31.9,30.12,ENE,68,5.0,13.0,29,0.00,,,0.00,Weather View 32 v70,2013-04-22 22:10:00,
2013-04-22 18:15:00,65.0,32.7,30.11,North,0,3.0,13.0,30,0.00,,,0.00,Weather View 32 v70,2013-04-22 22:15:00,
2013-04-22 18:20:00,64.0,31.0,30.11,ENE,68,5.0,13.0,29,0.00,,,0.00,Weather View 32 v70,2013-04-22 22:20:00,
2013-04-22 18:25:00,64.0,30.2,30.11,East,90,2.0,13.0,28,0.00,,,0.00,Weather View 32 v70,2013-04-22 22:25:00,
2013-04-22 18:30:00,64.0,30.2,30.11,North,0,6.0,12.0,28,0.00,,,0.00,Weather View 32 v70,2013-04-22 22:30:00,
2013-04-22 18:35:00,64.0,31.0,30.11,East,90,2.0,12.0,29,0.00,,,0.00,Weather View 32 v70,2013-04-22 22:35:00,
2013-04-22 18:41:00,64.0,31.9,30.11,ENE,68,5.0,12.0,30,0.00,,,0.00,Weather View 32 v70,2013-04-22 22:41:00,
2013-04-22 18:46:00,64.0,31.9,30.11,North,0,4.0,12.0,30,0.00,,,0.00,Weather View 32 v70,2013-04-22 22:46:00,
2013-04-22 18:51:00,64.0,31.0,30.11,ENE,68,5.0,12.0,29,0.00,,,0.00,Weather View 32 v70,2013-04-22 22:51:00,
2013-04-22 18:56:00,64.0,31.9,30.11,ENE,68,5.0,12.0,30,0.00,,,0.00,Weather View 32 v70,2013-04-22 22:56:00,
2013-04-22 19:01:00,64.0,31.9,30.11,ENE,68,3.0,12.0,30,0.00,,,0.00,Weather View 32 v70,2013-04-22 23:01:00,
2013-04-22 19:06:00,64.0,33.5,30.11,North,0,1.0,12.0,32,0.00,,,0.00,Weather View 32 v70,2013-04-22 23:06:00,
2013-04-22 19:11:00,63.0,32.6,30.12,ENE,68,3.0,12.0,32,0.00,,,0.00,Weather View 32 v70,2013-04-22 23:11:00,
2013-04-22 19:16:00,63.0,32.6,30.12,ENE,68,3.0,12.0,32,0.00,,,0.00,Weather View 32 v70,2013-04-22 23:16:00,
2013-04-22 19:21:00,63.0,31.8,30.12,ENE,68,5.0,10.0,31,0.00,,,0.00,Weather View 32 v70,2013-04-22 23:21:00,
2013-04-22 19:26:00,63.0,32.6,30.12,North,0,5.0,10.0,32,0.00,,,0.00,Weather View 32 v70,2013-04-22 23:26:00,
2013-04-22 19:31:00,63.0,33.4,30.12,ENE,68,5.0,10.0,33,0.00,,,0.00,Weather View 32 v70,2013-04-22 23:31:00,
2013-04-22 19:36:00,62.0,33.2,30.12,ENE,68,3.0,10.0,34,0.00,,,0.00,Weather View 32 v70,2013-04-22 23:36:00,
2013-04-22 19:41:00,62.0,33.2,30.12,ENE,68,2.0,11.0,34,0.00,,,0.00,Weather View 32 v70,2013-04-22 23:41:00,
2013-04-22 19:46:00,62.0,33.2,30.12,ENE,68,2.0,11.0,34,0.00,,,0.00,Weather View 32 v70,2013-04-22 23:46:00,
2013-04-22 19:51:00,62.0,33.2,30.12,ENE,68,5.0,11.0,34,0.00,,,0.00,Weather View 32 v70,2013-04-22 23:51:00,
2013-04-22 19:56:00,62.0,34.7,30.12,ENE,68,3.0,11.0,36,0.00,,,0.00,Weather View 32 v70,2013-04-22 23:56:00,
2013-04-22 20:01:00,61.0,33.8,30.12,ENE,68,1.0,11.0,36,0.00,,,0.00,Weather View 32 v70,2013-04-23 00:01:00,
2013-04-22 20:06:00,61.0,34.5,30.12,ENE,68,1.0,11.0,37,0.00,,,0.00,Weather View 32 v70,2013-04-23 00:06:00,
2013-04-22 20:11:00,61.0,34.5,30.12,ENE,68,2.0,11.0,37,0.00,,,0.00,Weather View 32 v70,2013-04-23 00:11:00,
2013-04-22 20:16:00,61.0,35.2,30.12,ENE,68,3.0,11.0,38,0.00,,,0.00,Weather View 32 v70,2013-04-23 00:16:00,
2013-04-22 20:21:00,60.0,34.9,30.12,ENE,68,2.0,11.0,39,0.00,,,0.00,Weather View 32 v70,2013-04-23 00:21:00,
2013-04-22 20:26:00,60.0,35.6,30.13,ENE,68,2.0,11.0,40,0.00,,,0.00,Weather View 32 v70,2013-04-23 00:26:00,
2013-04-22 20:31:00,60.0,35.6,30.13,ENE,68,2.0,11.0,40,0.00,,,0.00,Weather View 32 v70,2013-04-23 00:31:00,
2013-04-22 20:36:00,60.0,36.2,30.12,ENE,68,3.0,11.0,41,0.00,,,0.00,Weather View 32 v70,2013-04-23 00:36:00,
2013-04-22 20:41:00,59.0,35.9,30.13,ENE,68,1.0,9.0,42,0.00,,,0.00,Weather View 32 v70,2013-04-23 00:41:00,
2013-04-22 20:46:00,59.0,36.5,30.13,ENE,68,4.0,9.0,43,0.00,,,0.00,Weather View 32 v70,2013-04-23 00:46:00,
2013-04-22 20:51:00,59.0,36.5,30.13,North,0,4.0,6.0,43,0.00,,,0.00,Weather View 32 v70,2013-04-23 00:51:00,
2013-04-22 20:56:00,59.0,37.1,30.13,North,0,3.0,6.0,44,0.00,,,0.00,Weather View 32 v70,2013-04-23 00:56:00,
2013-04-22 21:01:00,58.0,36.2,30.13,North,0,3.0,6.0,44,0.00,,,0.00,Weather View 32 v70,2013-04-23 01:01:00,
2013-04-22 21:06:00,58.0,36.7,30.14,North,0,2.0,7.0,45,0.00,,,0.00,Weather View 32 v70,2013-04-23 01:06:00,
2013-04-22 21:11:00,58.0,37.3,30.14,ENE,68,3.0,7.0,46,0.00,,,0.00,Weather View 32 v70,2013-04-23 01:11:00,
2013-04-22 21:16:00,58.0,37.3,30.14,North,0,3.0,7.0,46,0.00,,,0.00,Weather View 32 v70,2013-04-23 01:16:00,
2013-04-22 21:21:00,58.0,37.8,30.14,North,0,4.0,7.0,47,0.00,,,0.00,Weather View 32 v70,2013-04-23 01:21:00,
2013-04-22 21:26:00,58.0,38.4,30.14,East,90,2.0,7.0,48,0.00,,,0.00,Weather View 32 v70,2013-04-23 01:26:00,
2013-04-22 21:31:00,57.0,37.5,30.14,North,0,3.0,7.0,48,0.00,,,0.00,Weather View 32 v70,2013-04-23 01:31:00,
2013-04-22 21:36:00,57.0,38.0,30.14,ENE,68,2.0,7.0,49,0.00,,,0.00,Weather View 32 v70,2013-04-23 01:36:00,
2013-04-22 21:41:00,57.0,38.0,30.14,ENE,68,3.0,7.0,49,0.00,,,0.00,Weather View 32 v70,2013-04-23 01:41:00,
2013-04-22 21:46:00,57.0,38.5,30.14,ENE,68,3.0,7.0,50,0.00,,,0.00,Weather View 32 v70,2013-04-23 01:46:00,
2013-04-22 21:51:00,57.0,38.5,30.14,ENE,68,5.0,7.0,50,0.00,,,0.00,Weather View 32 v70,2013-04-23 01:51:00,
2013-04-22 21:56:00,57.0,38.5,30.14,North,0,3.0,7.0,50,0.00,,,0.00,Weather View 32 v70,2013-04-23 01:56:00,
2013-04-22 22:01:00,56.0,38.1,30.14,North,0,3.0,7.0,51,0.00,,,0.00,Weather View 32 v70,2013-04-23 02:01:00,
2013-04-22 22:06:00,56.0,38.1,30.15,North,0,3.0,7.0,51,0.00,,,0.00,Weather View 32 v70,2013-04-23 02:06:00,
2013-04-22 22:11:00,56.0,38.1,30.15,ENE,68,1.0,6.0,51,0.00,,,0.00,Weather View 32 v70,2013-04-23 02:11:00,
2013-04-22 22:16:00,56.0,38.6,30.15,North,0,3.0,6.0,52,0.00,,,0.00,Weather View 32 v70,2013-04-23 02:16:00,
2013-04-22 22:21:00,56.0,38.6,30.15,ENE,68,4.0,6.0,52,0.00,,,0.00,Weather View 32 v70,2013-04-23 02:21:00,
2013-04-22 22:26:00,56.0,39.1,30.15,East,90,3.0,6.0,53,0.00,,,0.00,Weather View 32 v70,2013-04-23 02:26:00,
2013-04-22 22:31:00,56.0,39.1,30.15,North,0,4.0,7.0,53,0.00,,,0.00,Weather View 32 v70,2013-04-23 02:31:00,
2013-04-22 22:36:00,55.0,38.6,30.15,ENE,68,3.0,7.0,54,0.00,,,0.00,Weather View 32 v70,2013-04-23 02:36:00,
2013-04-22 22:41:00,55.0,38.6,30.14,ENE,68,3.0,7.0,54,0.00,,,0.00,Weather View 32 v70,2013-04-23 02:41:00,
2013-04-22 22:46:00,55.0,38.6,30.14,ENE,68,2.0,7.0,54,0.00,,,0.00,Weather View 32 v70,2013-04-23 02:46:00,
2013-04-22 22:51:00,55.0,38.6,30.15,ENE,68,3.0,7.0,54,0.00,,,0.00,Weather View 32 v70,2013-04-23 02:51:00,
2013-04-22 22:56:00,55.0,39.1,30.14,ENE,68,2.0,7.0,55,0.00,,,0.00,Weather View 32 v70,2013-04-23 02:56:00,
2013-04-22 23:01:00,55.0,39.6,30.14,ENE,68,5.0,7.0,56,0.00,,,0.00,Weather View 32 v70,2013-04-23 03:01:00,
2013-04-22 23:06:00,55.0,39.6,30.14,ENE,68,2.0,7.0,56,0.00,,,0.00,Weather View 32 v70,2013-04-23 03:06:00,
2013-04-22 23:11:00,55.0,40.0,30.14,ENE,68,5.0,7.0,57,0.00,,,0.00,Weather View 32 v70,2013-04-23 03:11:00,
2013-04-22 23:16:00,55.0,40.5,30.14,ENE,68,4.0,7.0,58,0.00,,,0.00,Weather View 32 v70,2013-04-23 03:16:00,
2013-04-22 23:21:00,54.0,40.0,30.14,ENE,68,5.0,7.0,59,0.00,,,0.00,Weather View 32 v70,2013-04-23 03:21:00,
2013-04-22 23:26:00,54.0,40.0,30.14,ENE,68,3.0,8.0,59,0.00,,,0.00,Weather View 32 v70,2013-04-23 03:26:00,
2013-04-22 23:31:00,54.0,40.4,30.14,ENE,68,3.0,8.0,60,0.00,,,0.00,Weather View 32 v70,2013-04-23 03:31:00,
2013-04-22 23:36:00,54.0,40.4,30.14,East,90,1.0,8.0,60,0.00,,,0.00,Weather View 32 v70,2013-04-23 03:36:00,
2013-04-22 23:41:00,54.0,40.8,30.14,ENE,68,4.0,8.0,61,0.00,,,0.00,Weather View 32 v70,2013-04-23 03:41:00,
2013-04-22 23:46:00,55.0,42.2,30.14,East,90,3.0,8.0,62,0.00,,,0.00,Weather View 32 v70,2013-04-23 03:46:00,
2013-04-22 23:51:00,55.0,42.2,30.14,ENE,68,2.0,8.0,62,0.00,,,0.00,Weather View 32 v70,2013-04-23 03:51:00,
2013-04-22 23:56:00,54.0,41.2,30.14,ENE,68,1.0,8.0,62,0.00,,,0.00,Weather View 32 v70,2013-04-23 03:56:00,